TimeEDT,TemperatureF,Dew PointF,Humidity,Sea Level PressureIn,VisibilityMPH,Wind Direction,Wind SpeedMPH,Gust SpeedMPH,PrecipitationIn,Events,Conditions,WindDirDegrees,DateUTC
12:54 AM,30.9,10.0,42,29.83,10.0,West,10.4,-,N/A,,Clear,280,2013-03-22 04:54:00
1:54 AM,28.9,12.0,49,29.83,10.0,West,9.2,-,N/A,,Partly Cloudy,260,2013-03-22 05:54:00
2:54 AM,28.0,12.9,53,29.83,10.0,WSW,9.2,-,N/A,,Mostly Cloudy,250,2013-03-22 06:54:00
3:54 AM,28.9,12.9,51,29.82,10.0,West,11.5,-,N/A,,Partly Cloudy,260,2013-03-22 07:54:00
4:54 AM,28.9,14.0,54,29.82,10.0,West,11.5,-,N/A,,Clear,260,2013-03-22 08:54:00
5:54 AM,28.9,15.1,56,29.83,10.0,West,12.7,-,N/A,,Partly Cloudy,260,2013-03-22 09:54:00
6:54 AM,28.9,16.0,58,29.85,10.0,West,15.0,-,N/A,,Scattered Clouds,260,2013-03-22 10:54:00
7:54 AM,30.0,16.0,56,29.87,10.0,West,16.1,-,N/A,,Mostly Cloudy,260,2013-03-22 11:54:00
8:54 AM,32.0,18.0,56,29.89,10.0,WSW,17.3,23.0,N/A,,Scattered Clouds,250,2013-03-22 12:54:00
9:54 AM,35.1,19.0,52,29.90,10.0,West,12.7,21.9,N/A,,Mostly Cloudy,270,2013-03-22 13:54:00
10:54 AM,37.0,18.0,46,29.89,10.0,WNW,16.1,25.3,N/A,,Mostly Cloudy,290,2013-03-22 14:54:00
11:01 AM,37.4,17.6,45,29.88,10.0,West,16.1,23.0,0.00,Snow,Light Snow,280,2013-03-22 15:01:00
11:17 AM,37.4,19.4,48,29.88,10.0,West,17.3,26.5,0.00,,Mostly Cloudy,280,2013-03-22 15:17:00
11:33 AM,37.4,19.4,48,29.88,10.0,West,19.6,26.5,0.00,Snow,Light Snow,280,2013-03-22 15:33:00
11:39 AM,37.4,19.4,48,29.88,10.0,WNW,17.3,26.5,0.00,,Mostly Cloudy,300,2013-03-22 15:39:00
11:54 AM,39.0,18.0,43,29.88,10.0,WNW,18.4,26.5,0.00,,Mostly Cloudy,290,2013-03-22 15:54:00
11:58 AM,39.2,17.6,42,29.88,10.0,NW,17.3,26.5,N/A,,Unknown,320,2013-03-22 15:58:00
12:22 PM,39.2,19.4,45,29.88,10.0,WNW,17.3,-,0.00,,Mostly Cloudy,290,2013-03-22 16:22:00
12:54 PM,37.9,18.0,45,29.88,10.0,WNW,18.4,32.2,0.00,,Mostly Cloudy,300,2013-03-22 16:54:00
1:54 PM,39.9,17.1,40,29.86,10.0,West,17.3,23.0,N/A,,Mostly Cloudy,270,2013-03-22 17:54:00
2:54 PM,41.0,16.0,36,29.86,10.0,WNW,16.1,25.3,N/A,,Mostly Cloudy,300,2013-03-22 18:54:00
3:54 PM,42.1,16.0,35,29.86,10.0,WNW,17.3,-,N/A,,Mostly Cloudy,290,2013-03-22 19:54:00
4:54 PM,43.0,16.0,34,29.86,10.0,West,19.6,25.3,N/A,,Mostly Cloudy,260,2013-03-22 20:54:00
5:54 PM,42.1,16.0,35,29.88,10.0,WNW,17.3,25.3,N/A,,Overcast,300,2013-03-22 21:54:00
6:54 PM,42.1,16.0,35,29.91,10.0,WNW,13.8,24.2,N/A,,Mostly Cloudy,300,2013-03-22 22:54:00
7:54 PM,39.9,18.0,41,29.93,10.0,NW,13.8,-,N/A,,Mostly Cloudy,310,2013-03-22 23:54:00
8:54 PM,37.9,18.0,45,29.94,10.0,NW,11.5,-,N/A,,Partly Cloudy,310,2013-03-23 00:54:00
9:54 PM,37.0,18.0,46,29.96,10.0,WNW,15.0,19.6,N/A,,Clear,290,2013-03-23 01:54:00
10:54 PM,36.0,18.0,48,29.96,10.0,West,11.5,-,N/A,,Clear,270,2013-03-23 02:54:00
11:54 PM,35.1,19.0,52,29.97,10.0,West,9.2,-,N/A,,Partly Cloudy,280,2013-03-23 03:54:00